User: anonymous   Login
Location: Bergnerzell
(49.1816°N, 10.2565°E)
Time: 09:58:17
(UTC+00:00)
Language:

Nimbus 7 Rocket - Orbit

View from above orbital plane
View from above orbital plane
View from above satellite
View from above satellite

Ground track
Ground track

The orbit data is extracted from the following two-line orbital elements,

1 11081U 78098B   24203.77357876  .00000118  00000-0  14158-3 0  9996
2 11081  99.3754 125.9657 0028360 210.1030 149.8496 13.85913182151471
Epoch (UTC): 21 July 2024 18:33:57
Eccentricity: 0.0028360
inclination: 99.3754°
perigee height: 922 km
apogee height: 964 km
right ascension of ascending node: 125.9657°
argument of perigee: 210.1030°
revolutions per day: 13.85913182
mean anomaly at epoch: 149.8496°
orbit number at epoch: 15147

The dashed part of the orbit path shows where the satellite is in the earth's shadow,  

DLR